This is the latest recevied weather packets stored in our database for station/object N4NVD-13. If no packets are shown the sender has not sent any weather packets the latest 10 day(s).
| Time | Temp. | Humidity | Pressure | Rain* | Wind** | Luminosity | Snow |
|---|---|---|---|---|---|---|---|
| 1777988887 | 22.78° C | 95% | 1007.7 hPa | 0 mm | - | 48 W/m² | - |
| 1777988584 | 22.78° C | 96% | 1007.7 hPa | 0 mm | - | 49 W/m² | - |
| 1777988280 | 22.78° C | 96% | 1007.6 hPa | 0 mm | - | 59 W/m² | - |
| 1777987977 | 22.78° C | 96% | 1007.6 hPa | 0 mm | - | 27 W/m² | - |
| 1777987673 | 22.78° C | 96% | 1007.7 hPa | 0 mm | - | 31 W/m² | - |
| 1777987370 | 22.78° C | 96% | 1007.6 hPa | 0 mm | - | 38 W/m² | - |
| 1777987067 | 22.78° C | 96% | 1007.5 hPa | 0 mm | - | 44 W/m² | - |
| 1777986764 | 22.22° C | 96% | 1007.3 hPa | 0 mm | - | 64 W/m² | - |
| 1777986462 | 22.22° C | 96% | 1007.1 hPa | 0 mm | - | 57 W/m² | - |
| 1777986160 | 22.22° C | 96% | 1007.3 hPa | 0 mm | - | 29 W/m² | - |
| 1777985857 | 22.22° C | 96% | 1007.2 hPa | 0 mm | - | 15 W/m² | - |
| 1777985554 | 22.22° C | 96% | 1007.4 hPa | 0 mm | - | 17 W/m² | - |
| 1777985251 | 22.22° C | 97% | 1007.2 hPa | 0 mm | - | 12 W/m² | - |
| 1777984948 | 22.22° C | 96% | 1007.2 hPa | 0 mm | - | 9 W/m² | - |
| 1777984643 | 21.67° C | 96% | 1007.2 hPa | 0 mm | - | 7 W/m² | - |
| 1777984340 | 21.67° C | 96% | 1007.3 hPa | 0 mm | - | 6 W/m² | - |
| 1777984036 | 21.67° C | 96% | 1007.3 hPa | 0 mm | - | 12 W/m² | - |
| 1777983734 | 21.67° C | 96% | 1007.1 hPa | 0 mm | - | 11 W/m² | - |
| 1777983425 | 21.67° C | 96% | 1007 hPa | 0 mm | - | 15 W/m² | - |
| 1777983122 | 21.67° C | 96% | 1007.2 hPa | 0 mm | - | 11 W/m² | - |
| 1777982818 | 21.67° C | 96% | 1007 hPa | 0 mm | - | 10 W/m² | - |
| 1777982513 | 21.67° C | 96% | 1006.8 hPa | 0 mm | - | 7 W/m² | - |
| 1777982207 | 21.67° C | 96% | 1006.8 hPa | 0 mm | - | 4 W/m² | - |
| 1777981906 | 21.67° C | 96% | 1006.9 hPa | 0 mm | - | 0 W/m² | - |
| 1777981603 | 21.67° C | 96% | 1007 hPa | 0 mm | - | 0 W/m² | - |
* Rain latest hour (hover to see other rain measurements)
** Current wind speed in m/s (hover to see current wind gust speed)